#timestamp,LO_Frequency,Hit,StdDev 
1514073615.5,286046999.2,N
1514073635.4,286046999.4,N
1514073655.3,286046998.8,N
1514073675.1,286046998.4,N
1514073676.0,286046998.4,N
1514073695.8,286046998.5,N
1514073715.7,286046998.8,N
1514073735.5,286046998.9,N
1514073755.3,286046999.5,N
1514073775.2,286046997.8,N
1514073795.0,286046998.0,N
1514073795.9,286046998.0,N
1514073815.8,286046997.6,N
1514073835.6,286046997.4,N
1514073855.4,286046997.8,N
1514073875.3,286046999.6,N
1514073895.1,286046999.5,N
1514073915.8,286046996.6,Y
1514073935.7,286046998.9,P
1514073955.5,286047001.2,P
1514073975.4,286046998.9,N
1514073995.2,286046999.6,N
1514074015.0,286046996.6,Y
1514074015.9,286046996.6,P
1514074035.8,286046997.7,N
1514074055.6,286046997.2,N
1514074075.4,286046997.5,N
1514074095.3,286046995.0,Y
1514074115.1,286047000.9,P
1514074135.9,286046998.1,N
1514074155.7,286046999.7,N
1514074175.5,286047002.8,N
1514074195.4,286047002.8,N
1514074215.2,286047000.4,N
1514074235.0,286047000.0,N
1514074236.0,286047000.0,N
1514074255.8,286046999.9,N
1514074275.6,286047002.1,N
1514074295.5,286047002.4,N
1514074315.3,286047000.1,N
1514074335.1,286046999.9,N
1514074355.4,286047002.1,N
1514074375.2,286047004.1,N
1514074395.0,286047003.4,N
1514074395.9,286047003.4,N
1514074415.8,286047003.5,N
1514074435.6,286047001.5,N
1514074455.4,286047002.4,N
1514074475.3,286047000.4,N
1514074495.1,286047002.1,N
1514074515.9,286047005.9,Y
1514074535.7,286047003.2,P
1514074555.5,286047005.6,P
1514074575.4,286047005.3,N
1514074595.2,286047003.3,N
1514074615.1,286047003.9,N
1514074616.0,286047003.9,N
1514074635.8,286047003.7,N
1514074655.6,286047004.0,Y
1514074675.5,286047002.8,P
1514074695.3,286047000.8,N
1514074715.2,286046999.9,N
1514074735.9,286047002.4,N
1514074755.7,286047001.1,N
1514074775.6,286046998.8,N
1514074795.4,286046999.6,N
1514074815.2,286046998.5,N
1514074835.1,286047001.1,N
1514074836.0,286047001.1,N
1514074855.8,286046998.9,N
1514074875.7,286046998.4,N
1514074895.5,286047001.0,N
1514074915.3,286046998.4,N
1514074935.2,286046999.1,N
1514074955.0,286046996.9,N
1514074955.9,286046996.9,N
1514074975.7,286046999.5,N
1514074995.6,286046999.5,N
1514075015.4,286046996.8,N
1514075035.3,286046994.9,N
1514075055.1,286046996.2,N
1514075056.0,286046996.2,N
1514075075.8,286046995.7,N
1514075095.7,286046997.8,N
1514075115.5,286046997.4,N
1514075135.4,286046995.1,N
1514075155.2,286046997.5,N
1514075175.0,286046999.2,N
1514075175.9,286046999.2,N
1514075195.8,286046998.1,N
1514075215.6,286047000.9,N
1514075235.4,286047000.8,N
1514075255.3,286046999.4,N
1514075275.1,286046996.8,N
1514075295.9,286046999.1,N
1514075315.7,286046999.0,N
1514075335.5,286047000.5,N
1514075355.4,286047000.7,N
1514075375.2,286046999.8,N
1514075395.0,286047002.3,N
1514075395.9,286047002.3,N
1514075415.8,286047000.7,N
1514075435.6,286047000.4,N
1514075455.5,286046998.1,N
1514075475.3,286047000.7,N
1514075495.1,286046998.3,N
1514075515.9,286046998.3,N
1514075535.7,286046996.6,N
1514075555.5,286046996.6,N
1514075575.4,286046999.5,N
1514075595.2,286046997.4,N
1514075615.1,286046997.9,N
1514075616.0,286046997.9,N
1514075635.8,286046995.5,N
1514075655.6,286046998.0,N
1514075675.5,286046996.9,N
1514075695.3,286047000.6,N
1514075715.1,286047002.6,N
1514075735.9,286047002.4,N
1514075755.7,286047000.3,N
1514075775.6,286046998.2,N
1514075795.4,286046998.5,N
1514075815.2,286047000.9,N
1514075835.1,286047000.9,N
1514075866.0,286047002.2,E
1514075875.9,286047001.6,N
1514075895.7,286047001.8,P
1514075915.6,286047000.4,P
1514075935.4,286047000.8,N
1514075955.3,286046998.6,N
1514075975.1,286046998.1,N
1514075976.0,286046998.1,N
1514075995.8,286046999.6,N
1514076015.7,286046999.6,N
1514076035.5,286046997.3,N
1514076055.3,286046995.3,Y
1514076075.2,286046997.5,P
1514076095.0,286046994.9,P
1514076095.9,286046994.9,N
1514076115.8,286046995.4,N
1514076135.6,286046995.0,N
1514076155.4,286046998.3,N
1514076175.3,286046998.5,N
1514076195.1,286046998.6,N
1514076215.8,286046998.6,N
1514076235.7,286046997.1,N
1514076255.5,286046997.1,N
1514076275.4,286046995.3,N
1514076295.2,286046995.2,N
1514076315.0,286046994.9,Y
1514076315.9,286046994.9,P
1514076335.8,286047001.0,N
1514076355.6,286046998.2,N
1514076375.4,286047000.7,N
1514076395.3,286047000.7,N
1514076415.1,286047000.5,N
1514076435.9,286046998.7,N
1514076455.7,286046998.2,N
1514076475.5,286046998.1,N
1514076495.4,286046998.1,N
1514076515.2,286046998.2,N
1514076535.0,286046998.5,N
1514076536.0,286046998.5,N
1514076555.8,286047001.2,N
1514076575.6,286047001.1,N
1514076595.5,286047001.1,N
1514076615.3,286047000.0,N
1514076635.1,286047000.4,N
1514076655.9,286047000.6,N
1514076675.7,286046998.6,N
1514076695.6,286046998.6,N
1514076715.4,286046999.0,N
1514076735.2,286046999.4,N
1514076755.1,286046998.8,N
1514076756.0,286046998.8,N
1514076775.8,286046998.1,N
1514076795.6,286047001.1,N
1514076815.5,286047000.2,N
1514076835.3,286047002.8,N
1514076855.2,286046999.8,N
1514076875.9,286047001.0,N
1514076895.7,286047000.6,N
1514076915.6,286046998.3,N
1514076935.4,286046998.5,N
1514076955.3,286047001.1,N
1514076975.1,286046998.2,N
1514076976.0,286046998.2,N
1514076995.8,286047000.6,N
1514077015.7,286047001.1,N
1514077035.5,286046998.5,N
1514077055.3,286046998.8,N
1514077075.2,286046999.1,N
1514077095.0,286046998.2,N
1514077095.9,286046998.2,N
1514077115.8,286047002.2,N
1514077135.6,286047002.8,N
1514077155.4,286047000.9,N
1514077175.3,286047000.5,N
1514077195.1,286046999.7,N
